Flag for U.S.A. Weather past 2 weeks in Boca Raton, Florida, U.S.A.

Now
85 °F

Clear.


Feels Like: 93 °F
Forecast: 82 / 90 °F
Wind: 6 mph from Southeast

Location: Pompano Beach - Pompano Beach Airpark

Current Time: Aug 31, 2014 at 3:01:00 AM

Latest Report: Aug 31, 2014 at 1:53 AM


Visibility: 10 mi

Pressure: 30.11 "Hg

Humidity: 72%

Dew point: 75 °F

Location of Boca RatonLocation

Historic Weather in Boca Raton — Graph

°F

Boca Raton temperature yesterday

Maximum temperature yesterday: 92 °F (at 1:53 PM)
Minimum temperature yesterday: 84 °F (at 11:53 PM)
Average temperature yesterday: 88 °F

Past Weeks' High & Low Weather Summary

 TemperatureHumidityPressure
High93 °F (Aug 25, 12:53 PM)91% (Aug 25, 7:53 AM)30.12 "Hg (Aug 25, 7:53 AM)
Low77 °F (Aug 16, 3:53 AM)52% (Aug 24, 1:53 PM)29.74 "Hg (Aug 25, 3:53 PM)
Average86 °F69%29.99 "Hg
* Reported Aug 16 12:53 AM — Aug 31 12:53 AM, Boca Raton, Weather by CustomWeather, © 2014

Note: Actual official high and low records may vary slightly from our data, if they occured in-between our weather recording intervals... More about our weather records

Advertising

Boca Raton weather history for previous 24 hours

 ConditionsComfort  
Time TempWeatherWind HumidityBarometerVisibility
12:53 AM
Aug 31
83 °FClear.5 mph72%30.11 "Hg10 mi
11:53 PM
Aug 30
84 °FClear.9 mph72%30.11 "Hg10 mi
10:53 PM87 °FPassing clouds.12 mph65%30.11 "Hg10 mi
9:53 PM87 °FClear.14 mph69%30.09 "Hg10 mi
8:53 PM87 °FClear.13 mph65%30.08 "Hg10 mi
7:53 PM87 °FSunny.12 mph65%30.07 "Hg10 mi
6:53 PM87 °FSunny.12 mph63%30.06 "Hg10 mi
5:53 PM89 °FLight rain. Scattered clouds.14 mph61%30.05 "Hg10 mi
4:53 PM90 °FSunny.15 mph61%30.05 "Hg10 mi
3:53 PM91 °FPassing clouds.14 mph60%30.07 "Hg10 mi
2:53 PM91 °FScattered clouds.13 mph57%30.08 "Hg10 mi
1:53 PM92 °FScattered clouds.15 mph56%30.10 "Hg10 mi
12:53 PM91 °FScattered clouds.13 mph57%30.11 "Hg10 mi
11:53 AM91 °FScattered clouds.13 mph57%30.12 "Hg10 mi
10:53 AM90 °FScattered clouds.10 mph61%30.12 "Hg10 mi
9:53 AM89 °FScattered clouds.12 mph63%30.11 "Hg10 mi
8:53 AM89 °FScattered clouds.15 mph59%30.10 "Hg10 mi
7:53 AM87 °FWarm.12 mph67%30.11 "Hg10 mi
6:53 AM86 °FWarm.10 mph70%30.09 "Hg10 mi
5:53 AM86 °FWarm.10 mph70%30.08 "Hg10 mi
4:53 AM86 °FWarm.12 mph70%30.06 "Hg10 mi
3:53 AM86 °FClear.12 mph70%30.06 "Hg10 mi
3:01 AM86 °FThundershowers. Passing clouds.9 mph72%30.09 "Hg10 mi
Weather by CustomWeather, © 2014

See weather overviewHow to use our weather pages